Location: Clatteringshaws Loch
(55.0508°N, 4.2860°W)
Time: 02:07:29
(UTC+01:00)

ALOS - Visible Passes

Search period start: 29 March 2015 00:00
Search period end: 08 April 2015 01:00
Orbit: 686 x 689 km, 97.9° (Epoch: 28 March)

Date Brightness Start Highest point End Pass type
(mag) Time Alt. Az. Time Alt. Az. Time Alt. Az.
29 Mar 2.8 20:38:30 10° SE 20:42:51 40° ENE 20:47:15 10° N visible
29 Mar 3.7 22:16:15 11° SSW 22:20:26 36° W 22:24:45 10° NNW visible
30 Mar 2.2 21:16:12 10° SSE 21:20:52 78° ENE 21:25:34 10° NNW visible
30 Mar 4.7 22:55:41 10° SW 22:58:59 18° W 23:02:11 10° NW visible
31 Mar 3.0 21:54:36 11° S 21:59:05 52° W 22:03:41 10° NNW visible
01 Apr 2.5 20:55:09 10° SE 20:59:41 54° ENE 21:04:18 10° N visible
01 Apr 4.2 22:33:32 10° SSW 22:37:30 26° W 22:41:26 10° NW visible
02 Apr 2.4 21:33:06 10° S 21:37:47 77° WSW 21:42:31 10° NNW visible
02 Apr 4.9 23:13:48 10° WSW 23:16:11 13° W 23:18:24 10° NW visible
03 Apr 2.9 20:34:17 10° SE 20:38:35 38° ENE 20:42:55 10° N visible
03 Apr 3.6 22:11:43 10° SSW 22:16:06 38° W 22:20:29 10° NNW visible
04 Apr 2.3 21:11:54 10° SSE 21:16:34 73° ENE 21:21:16 10° NNW visible
04 Apr 4.6 22:51:11 10° SW 22:54:37 20° W 22:57:59 10° NW visible
05 Apr 2.9 21:50:08 10° S 21:54:44 56° W 21:59:23 10° NNW visible
06 Apr 2.6 20:50:52 10° SE 20:55:23 50° ENE 20:59:57 10° N visible
06 Apr 4.1 22:29:04 10° SSW 22:33:08 28° W 22:37:11 10° NNW visible
07 Apr 2.3 21:28:46 10° SSE 21:33:28 83° WSW 21:38:11 10° NNW visible
07 Apr 4.9 23:09:08 10° WSW 23:11:47 14° W 23:14:16 10° NW visible
